Location: Frankfurt am Main
(50.1109°N, 8.6821°E)
Time: 16:12:47
(UTC+02:00)

ISS - Visible Passes

Search period start: 18 September 2018 00:00
Search period end: 28 September 2018 00:00
Orbit: 402 x 408 km, 51.6° (Epoch: 18 September)

Date Brightness Start Highest point End Pass type
(mag) Time Alt. Az. Time Alt. Az. Time Alt. Az.
22 Sep -1.8 20:27:00 10° SSE 20:28:32 13° SE 20:28:32 13° SE visible
23 Sep -2.7 21:09:34 10° SW 21:11:51 32° S 21:11:51 32° S visible
24 Sep -2.5 20:18:00 10° SSW 20:20:45 24° SE 20:22:16 17° ESE visible
24 Sep -1.6 21:53:39 10° WSW 21:54:57 22° WSW 21:54:57 22° WSW visible
25 Sep -3.9 21:01:39 10° WSW 21:04:55 64° SSE 21:05:12 60° SE visible
26 Sep -3.3 20:09:46 10° SW 20:12:56 43° SSE 20:15:20 15° E visible
26 Sep -2.1 21:46:03 10° W 21:48:00 32° W 21:48:00 32° W visible
27 Sep -3.9 20:53:57 10° WSW 20:57:15 85° NNW 20:58:01 50° ENE visible
27 Sep -0.4 22:30:36 10° WNW 22:30:41 11° WNW 22:30:41 11° WNW visible
